Regional Weather Roundup
Issued by NWS

Home | Current Version | Previous Version | Text Only | Print | Product List | Glossary Off
Versions: 1 2 3 4 5 6 7 8 9 10 11 12 13 14 15 16 17 18 19 20 21 22 23 24 25 26 27

000
ASUS45 KCYS 231710
RWRWY

WYOMING REGIONAL WEATHER ROUNDUP
NATIONAL WEATHER SERVICE CHEYENNE WY
1100 AM MDT TUE MAY 23 2017

NOTE:  "FAIR" INDICATES FEW OR NO CLOUDS BELOW 12,000 FEET
WITH NO SIGNIFICANT WEATHER AND/OR OBSTRUCTIONS TO VISIBILITY.

WYZ001-231800-
YELLOWSTONE NATIONAL PARK

CITY           SKY/WX    TMP DP  RH WIND       PRES   REMARKS
LK YELLOWSTONE   N/A     44  30  57 SE5       30.34F
W YELLOWSTONE  NOT AVBL

$$
WYZ002>013-054>058-071-098>099-231800-
NORTHERN WYOMING

CITY           SKY/WX    TMP DP  RH WIND       PRES   REMARKS
JACKSON        SUNNY     54  34  47 CALM      30.28F
CODY           FAIR      62  31  31 VRB5      30.20F
GREYBULL       FAIR      61  39  44 SW5       30.18F
WORLAND        FAIR      58  39  49 CALM      30.19F
SHERIDAN       FAIR      62  38  40 N8        30.18F
BUFFALO        FAIR      59  34  39 N13G23    30.21F
GILLETTE       FAIR      58  36  43 N16       30.19S
HULETT         FAIR      55  32  41 N13G18    30.19S
NEWCASTLE      FAIR      55  34  44 NW14G23   30.16F

$$
WYZ014>020-022>026-101>103-231800-
CENTRAL WYOMING

CITY           SKY/WX    TMP DP  RH WIND       PRES   REMARKS
BIG PINEY      FAIR      52  33  48 SW3       30.30F
PINEDALE       FAIR      52  30  43 N6        30.31F
DUBOIS         FAIR      55  27  33 NW10G17   30.25F
LANDER         FAIR      59  36  42 VRB5      30.23F
RIVERTON       FAIR      57  34  41 NW5       30.24F
CASPER         FAIR      56  36  47 N8        30.22F
DOUGLAS        PTSUNNY   55  31  39 NW15G24   30.20F

$$
WYZ021-027>030-104>119-231800-
SOUTHERN WYOMING

CITY           SKY/WX    TMP DP  RH WIND       PRES   REMARKS
EVANSTON       FAIR      58  37  45 VRB6      30.30F
KEMMERER         N/A     54  32  43 SW3       30.31F
FORT BRIDGER   FAIR      56  36  47 W5        30.33F
ROCK SPRINGS   FAIR      51  32  48 VRB3      30.30F
DIXON            N/A     46  36  68 CALM      30.35F
RAWLINS        FAIR      51  32  48 W10G21    30.28F
LARAMIE        PTSUNNY   46  29  51 NW24G31   30.23F
CHEYENNE       CLOUDY    48  33  56 N15G23    30.20F
TORRINGTON     CLOUDY    55  33  43 N16G25    30.15F
PINE BLUFFS    CLOUDY    50  34  53 N18       30.19F

$$




USA.gov is the U.S. government's official web portal to all federal, state and local government web resources and services.